Meteo orario Abbevillers

Oggi, 24 Giugno, Giovedi

Tempo Temperatura Precipitazioni Vento Pressione Umidità
00:00 +14°C° 0.6 mm 1 m/s 714 mm Hg 94%
01:00 +14°C° 0.1 mm 1 m/s 714 mm Hg 94%
02:00 +14°C° 0.1 mm 1 m/s 714 mm Hg 94%
03:00 +14°C° 0.1 mm 1 m/s 714 mm Hg 94%
04:00 +14°C° 0.1 mm 1 m/s 714 mm Hg 93%
05:00 +15°C° 0.1 mm 1 m/s 714 mm Hg 93%
06:00 +15°C° 0.1 mm 1 m/s 714 mm Hg 93%
07:00 +16°C° 0.1 mm 1 m/s 714 mm Hg 91%
08:00 +16°C° 0.1 mm 1 m/s 715 mm Hg 88%
09:00 +17°C° 0.1 mm 2 m/s 715 mm Hg 86%
10:00 +18°C° 0.5 mm 2 m/s 715 mm Hg 82%
11:00 +19°C° 0.5 mm 3 m/s 715 mm Hg 77%
12:00 +20°C° 0.5 mm 3 m/s 715 mm Hg 73%
13:00 +19°C° 0.4 mm 4 m/s 715 mm Hg 75%
14:00 +18°C° 0.4 mm 4 m/s 715 mm Hg 78%
15:00 +18°C° 0.4 mm 4 m/s 715 mm Hg 80%
16:00 +17°C° 0.4 mm 4 m/s 716 mm Hg 84%
17:00 +16°C° 0.4 mm 3 m/s 716 mm Hg 87%
18:00 +15°C° 0.4 mm 2 m/s 716 mm Hg 91%
19:00 +15°C° 0.1 mm 2 m/s 716 mm Hg 93%
20:00 +14°C° 0.1 mm 2 m/s 716 mm Hg 94%
21:00 +13°C° 0.1 mm 2 m/s 717 mm Hg 96%
22:00 +13°C° 0 mm 2 m/s 717 mm Hg 96%
23:00 +13°C° 0 mm 1 m/s 716 mm Hg 96%

Domani, 25 Giugno, Venerdi

Tempo Temperatura Precipitazioni Vento Pressione Umidità
00:00 +13°C° 0 mm 1 m/s 716 mm Hg 97%
01:00 +13°C° 0.1 mm 1 m/s 716 mm Hg 97%
02:00 +13°C° 0.1 mm 1 m/s 716 mm Hg 97%
03:00 +13°C° 0.1 mm 1 m/s 716 mm Hg 97%
04:00 +13°C° 0.1 mm 1 m/s 716 mm Hg 97%
05:00 +13°C° 0.1 mm 1 m/s 716 mm Hg 97%
06:00 +13°C° 0.1 mm 1 m/s 716 mm Hg 97%
07:00 +14°C° 0.2 mm 1 m/s 716 mm Hg 93%
08:00 +15°C° 0.2 mm 1 m/s 716 mm Hg 90%
09:00 +16°C° 0.2 mm 2 m/s 716 mm Hg 86%
10:00 +17°C° 0.2 mm 2 m/s 716 mm Hg 79%
11:00 +18°C° 0.2 mm 2 m/s 716 mm Hg 72%
12:00 +19°C° 0.2 mm 3 m/s 716 mm Hg 65%
13:00 +19°C° 0.1 mm 2 m/s 716 mm Hg 66%
14:00 +19°C° 0.1 mm 2 m/s 716 mm Hg 67%
15:00 +19°C° 0.1 mm 2 m/s 715 mm Hg 68%
16:00 +18°C° 0 mm 2 m/s 715 mm Hg 72%
17:00 +19°C° 0 mm 1 m/s 715 mm Hg 75%
18:00 +19°C° 0 mm 1 m/s 715 mm Hg 79%
19:00 +16°C° 0 mm 1 m/s 715 mm Hg 83%
20:00 +14°C° 0 mm 1 m/s 715 mm Hg 87%
21:00 +13°C° 0 mm 1 m/s 715 mm Hg 90%
22:00 +12°C° 0 mm 1 m/s 715 mm Hg 91%
23:00 +12°C° 0 mm 1 m/s 715 mm Hg 91%

Dopodomani, 26 Giugno, Sabato

Tempo Temperatura Precipitazioni Vento Pressione Umidità
00:00 +12°C° 0 mm 1 m/s 715 mm Hg 91%
01:00 +11°C° 0 mm 1 m/s 715 mm Hg 92%
02:00 +11°C° 0 mm 1 m/s 714 mm Hg 92%
03:00 +11°C° 0 mm 1 m/s 714 mm Hg 93%
04:00 +12°C° 0 mm 1 m/s 714 mm Hg 90%
05:00 +13°C° 0 mm 1 m/s 715 mm Hg 87%
06:00 +15°C° 0 mm 1 m/s 715 mm Hg 85%
07:00 +16°C° 0 mm 1 m/s 715 mm Hg 78%
08:00 +19°C° 0 mm 1 m/s 715 mm Hg 71%
09:00 +21°C° 0 mm 1 m/s 715 mm Hg 64%
10:00 +22°C° 0 mm 1 m/s 715 mm Hg 60%
11:00 +23°C° 0 mm 2 m/s 714 mm Hg 56%
12:00 +24°C° 0 mm 2 m/s 714 mm Hg 52%
13:00 +24°C° 0 mm 2 m/s 714 mm Hg 52%
14:00 +25°C° 0 mm 2 m/s 714 mm Hg 53%
15:00 +25°C° 0 mm 2 m/s 714 mm Hg 53%
16:00 +24°C° 0 mm 2 m/s 714 mm Hg 62%
17:00 +23°C° 0 mm 1 m/s 713 mm Hg 70%
18:00 +22°C° 0 mm 1 m/s 713 mm Hg 79%
19:00 +20°C° 0 mm 1 m/s 713 mm Hg 81%
20:00 +17°C° 0 mm 2 m/s 713 mm Hg 82%
21:00 +16°C° 0 mm 2 m/s 712 mm Hg 84%
22:00 +16°C° 0 mm 2 m/s 712 mm Hg 84%
23:00 +15°C° 0 mm 2 m/s 712 mm Hg 83%

27 Giugno, Domenica

Tempo Temperatura Precipitazioni Vento Pressione Umidità
00:00 +15°C° 0 mm 2 m/s 712 mm Hg 83%
01:00 +15°C° 0 mm 1 m/s 712 mm Hg 83%
02:00 +15°C° 0 mm 1 m/s 711 mm Hg 84%
03:00 +14°C° 0 mm 1 m/s 711 mm Hg 85%
04:00 +16°C° 0 mm 1 m/s 711 mm Hg 82%
05:00 +18°C° 0 mm 1 m/s 712 mm Hg 79%
06:00 +19°C° 0 mm 1 m/s 712 mm Hg 76%
07:00 +21°C° 0 mm 1 m/s 712 mm Hg 70%
08:00 +23°C° 0 mm 1 m/s 712 mm Hg 63%
09:00 +25°C° 0 mm 2 m/s 712 mm Hg 57%
10:00 +25°C° 0 mm 2 m/s 712 mm Hg 56%
11:00 +26°C° 0 mm 2 m/s 712 mm Hg 55%
12:00 +27°C° 0 mm 3 m/s 711 mm Hg 54%
13:00 +26°C° 0 mm 2 m/s 711 mm Hg 61%
14:00 +25°C° 0 mm 2 m/s 711 mm Hg 68%
15:00 +24°C° 0 mm 2 m/s 711 mm Hg 75%
16:00 +23°C° 0.9 mm 2 m/s 712 mm Hg 81%
17:00 +21°C° 0.9 mm 1 m/s 712 mm Hg 88%
18:00 +20°C° 0.9 mm 1 m/s 712 mm Hg 95%
19:00 +19°C° 0.2 mm 1 m/s 712 mm Hg 95%
20:00 +18°C° 0.2 mm 1 m/s 712 mm Hg 95%
21:00 +18°C° 0.2 mm 1 m/s 712 mm Hg 95%
22:00 +16°C° 0.7 mm 1 m/s 712 mm Hg 96%
23:00 +16°C° 0.7 mm 1 m/s 712 mm Hg 97%

28 Giugno, Lunedi

Tempo Temperatura Precipitazioni Vento Pressione Umidità
00:00 +16°C° 0.7 mm 1 m/s 712 mm Hg 98%
01:00 +16°C° 0.7 mm 1 m/s 712 mm Hg 98%
02:00 +16°C° 0.7 mm 1 m/s 712 mm Hg 98%
03:00 +16°C° 0.7 mm 1 m/s 712 mm Hg 98%
04:00 +16°C° 0.4 mm 1 m/s 712 mm Hg 98%
05:00 +16°C° 0.4 mm 1 m/s 713 mm Hg 98%
06:00 +16°C° 0.4 mm 1 m/s 713 mm Hg 98%
07:00 +16°C° 0.6 mm 2 m/s 713 mm Hg 97%
08:00 +17°C° 0.6 mm 2 m/s 713 mm Hg 96%
09:00 +17°C° 0.6 mm 2 m/s 714 mm Hg 94%
10:00 +17°C° 0.8 mm 2 m/s 714 mm Hg 94%
11:00 +18°C° 0.8 mm 1 m/s 714 mm Hg 95%
12:00 +16°C° 0.8 mm 1 m/s 714 mm Hg 95%
13:00 +19°C° 0.4 mm 1 m/s 714 mm Hg 90%
14:00 +20°C° 0.4 mm 1 m/s 714 mm Hg 86%
15:00 +21°C° 0.4 mm 1 m/s 714 mm Hg 82%
16:00 +21°C° 0.2 mm 1 m/s 714 mm Hg 84%
17:00 +20°C° 0.2 mm 1 m/s 714 mm Hg 86%
18:00 +19°C° 0.2 mm 2 m/s 714 mm Hg 89%
19:00 +19°C° 1 mm 1 m/s 714 mm Hg 92%
20:00 +18°C° 1 mm 1 m/s 714 mm Hg 94%
21:00 +16°C° 1 mm 1 m/s 714 mm Hg 97%
22:00 +16°C° 1.5 mm 1 m/s 714 mm Hg 97%
23:00 +16°C° 1.5 mm 1 m/s 714 mm Hg 97%

29 Giugno, Martedi

Tempo Temperatura Precipitazioni Vento Pressione Umidità
00:00 +16°C° 1.5 mm 1 m/s 714 mm Hg 98%
01:00 +16°C° 0.6 mm 1 m/s 714 mm Hg 98%
02:00 +16°C° 0.6 mm 1 m/s 713 mm Hg 98%
03:00 +15°C° 0.6 mm 0 m/s 713 mm Hg 98%
04:00 +16°C° 0.7 mm 1 m/s 713 mm Hg 98%
05:00 +16°C° 0.7 mm 1 m/s 713 mm Hg 99%
06:00 +16°C° 0.7 mm 1 m/s 714 mm Hg 99%
07:00 +16°C° 1.4 mm 1 m/s 714 mm Hg 98%
08:00 +16°C° 1.4 mm 1 m/s 714 mm Hg 98%
09:00 +16°C° 1.4 mm 1 m/s 714 mm Hg 98%
10:00 +16°C° 0.8 mm 1 m/s 714 mm Hg 96%
11:00 +18°C° 0.8 mm 1 m/s 714 mm Hg 95%
12:00 +18°C° 0.8 mm 1 m/s 714 mm Hg 93%
13:00 +18°C° 0.8 mm 1 m/s 714 mm Hg 94%
14:00 +18°C° 0.8 mm 1 m/s 714 mm Hg 94%
15:00 +18°C° 0.8 mm 1 m/s 714 mm Hg 95%
16:00 +16°C° 0.9 mm 1 m/s 714 mm Hg 96%
17:00 +16°C° 0.9 mm 1 m/s 714 mm Hg 96%
18:00 +16°C° 0.9 mm 1 m/s 714 mm Hg 97%
19:00 +15°C° 0.5 mm 1 m/s 715 mm Hg 97%
20:00 +15°C° 0.5 mm 1 m/s 715 mm Hg 97%
21:00 +14°C° 0.5 mm 1 m/s 715 mm Hg 97%
22:00 +14°C° 0.2 mm 1 m/s 715 mm Hg 97%
23:00 +14°C° 0.2 mm 1 m/s 715 mm Hg 97%
Mostrare altro

Abbiamo bisogno del tuo consenso

Meteoprog e i nostri fornitori di servizi possono memorizzare e accedere a dati personali come cookie, identificatori di dispositivi o altre tecnologie simili sul tuo dispositivo e possono elaborare tali dati per personalizzare i contenuti e gli annunci, nonché fornire funzionalità dei social media e analizzarne il traffico.

  • Archiviare e/o accedere alle informazioni sul tuo dispositivo

    Cookie, identificatori di dispositivi o altre informazioni possono essere memorizzati o resi accessibili sul tuo dispositivo per le finalità sopra indicate.

  • Annunci e contenuti personalizzati, misurazione di annunci e contenuti, approfondimenti sul pubblico e sviluppo di prodotti

    Gli annunci e i contenuti possono essere personalizzati in base a un profilo. È possibile aggiungere più dati per personalizzare meglio annunci e contenuti. È possibile misurare il rendimento degli annunci e dei contenuti. È possibile ricavare informazioni sul pubblico che ha visto gli annunci e i contenuti. Tali dati possono essere utilizzati per sviluppare o migliorare l'esperienza, i sistemi e il software dell'utente.

Cliccando su “Accetto”, acconsenti all'uso di cookie, identificatori di dispositivo, web beacon o altre tecnologie simili. Puoi modificare le impostazioni nel browser del tuo dispositivo.

Per determinati scopi, è possibile fare affidamento su interessi legali, piuttosto che sul consenso. Puoi approfondire questo argomento consultando la nostra Informativa sulla privacy e sui cookie.